Regional Weather Roundup
Issued by NWS

Home | Current Version | Previous Version | Graphics & Text | Print | Product List | Glossary On
Versions: 1 2 3 4 5 6 7 8 9 10 11 12 13 14 15 16 17 18 19 20 21 22 23 24 25 26 27 28 29 30 31 32 33 34 35 36 37 38 39 40 41 42 43 44 45 46 47 48 49 50
000
ASUS43 KLSX 201907
RWRMO

WEATHER SUMMARY FOR MISSOURI
NATIONAL WEATHER SERVICE SPRINGFIELD MO
200 PM CDT SUN APR 20 2014

NOTE: "FAIR" INDICATES FEW OR NO CLOUDS BELOW 12,000 FEET WITH NO
       SIGNIFICANT WEATHER AND/OR OBSTRUCTIONS TO VISIBILITY.
       CURRENT SKY AND/OR WEATHER CONDITIONS ARE NOT AVAILABLE FOR
       CHILLICOTHE AND FARMINGTON.

MOZ001>031-035>038-043-044-053-054-202000-
...NORTHERN AND WESTERN MISSOURI...

CITY           SKY/WX    TMP DP  RH WIND       PRES   REMARKS
KANSAS CTY INT PTSUNNY   77  52  41 S17G24    30.05F
KANSAS C DTWN  PTSUNNY   79  54  41 S15G23    30.05F
LEE`S SUMMIT   PTSUNNY   75  51  43 S14G22    30.08F
ST JOSEPH      PTSUNNY   82  53  36 SW15G22   30.02F
CHILLICOTHE      N/A     78  49  35 SW13G22   30.06F
KIRKSVILLE     MOSUNNY   80  49  33 S10G20    30.08F

$$
MOZ066>068-077>081-088>096-101>105-202000-
...SOUTHWEST MISSOURI...

CITY           SKY/WX    TMP DP  RH WIND       PRES   REMARKS
SPRINGFIELD    PTSUNNY   74  49  41 S8G17     30.12F
JOPLIN         CLOUDY    74  50  42 SW13      30.12F

$$
MOZ032>034-039>042-045>050-055>058-069>072-202000-
...CENTRAL MISSOURI...

CITY           SKY/WX    TMP DP  RH WIND       PRES   REMARKS
COLUMBIA       MOSUNNY   80  50  34 S10G16    30.10F
JEFFERSON CITY MOSUNNY   78  47  33 SE13G18   30.09F
ROLLA          SUNNY     77  47  34 S12       30.10F
SEDALIA        MOSUNNY   78  51  38 S16G26    30.09F
WHITEMAN AFB   MOSUNNY   78  50  36 SW16G25   30.08F
OSAGE BEACH    MOSUNNY   77  46  33 S12       30.11F

$$
MOZ051-052-059>065-202000-
...EAST CENTRAL MISSOURI...

CITY           SKY/WX    TMP DP  RH WIND       PRES   REMARKS
ST LOUIS INTL  PTSUNNY   81  41  24 S9        30.13F
SPIRIT OF STL  MOSUNNY   79  39  23 SE5       30.10F
ST CHARLES     SUNNY     79  41  25 VRB7G16   30.11F

$$
MOZ072>076-082>087-097>100-106>115-202000-
...SOUTH CENTRAL AND SOUTHEAST MISSOURI...

CITY           SKY/WX    TMP DP  RH WIND       PRES   REMARKS
CAPE GIRARDEAU SUNNY     77  45  32 S7        30.15F
FARMINGTON     SUNNY     77  41  27 SE8G17    30.16F
POPLAR BLUFF   MOSUNNY   78  43  28 SW9       30.14F
WEST PLAINS    MOSUNNY   75  47  36 SW8       30.15F

$$



USA.gov is the U.S. government's official web portal to all federal, state and local government web resources and services.